Temperature
28 29 29 29 30 29 29 29 29 28 27 27 26 24 23 22 21 21 20 19 18 17 16 16 16 16 16 16 16 16 17 17 17 16 16 16 16 16 16 16 16 16 16 16
29 29 29 29 29 29 29 29 29 27 26 26 25 24 23 22 21 20 20 19 18 18 17 16 16 16 16 16 16 16 16 17 17 16 16 16 16 16 16 15 15 15 15 15
29 29 29 29 29 29 29 29 29 28 26 26 25 24 23 23 21 20 20 19 19 18 18 17 17 16 16 16 16 16 17 16 16 16 16 16 16 16 15 15 15 15 15 15
29 29 29 29 29 29 28 29 29 27 27 27 27 26 24 23 23 22 21 20 19 18 18 18 17 17 16 16 16 16 16 16 16 16 15 15 15 15 15 15 15 15 15 15
29 28 28 28 28 28 28 28 28 28 28 27 27 27 24 24 23 23 22 20 20 19 18 18 17 17 16 16 16 16 16 16 16 15 15 15 15 15 15 14 14 14 14 14
28 28 28 28 28 28 28 28 28 28 28 26 26 26 24 24 23 23 22 21 19 19 18 18 17 17 17 16 16 16 15 15 15 15 15 14 14 14 14 14 14 14 14 14
28 28 28 28 28 28 28 28 27 26 26 26 26 26 23 23 23 22 22 21 20 19 19 18 18 17 17 16 16 16 15 15 14 14 14 14 14 13 13 13 14 14 14 14
27 27 27 28 27 27 27 27 26 25 25 26 25 24 23 22 21 21 21 20 20 19 19 18 18 17 17 16 16 15 14 14 14 14 13 13 13 13 13 13 13 13 13 13
27 27 27 27 27 27 27 27 27 27 26 26 25 24 22 22 22 21 21 20 20 20 19 18 18 17 17 16 15 14 14 13 13 13 13 13 13 12 12 12 12 12 12 13
28 26 27 27 28 26 27 27 27 26 25 25 25 24 23 22 22 22 21 21 20 19 19 18 17 17 16 15 14 14 13 13 13 12 12 13 12 12 12 12 12 12 11 11
28 27 27 27 26 25 26 26 26 26 25 24 24 24 23 22 22 22 21 20 19 19 18 17 17 16 15 14 14 14 13 12 12 12 11 11 11 11 11 11 11 11 11 11
26 27 26 26 25 26 26 25 25 25 24 24 24 24 22 22 22 21 20 19 18 18 17 16 16 15 14 14 13 13 12 12 12 11 11 11 10 10 10 11 11 11 10 10
26 26 26 25 25 26 25 25 25 25 25 24 24 24 22 22 22 21 20 19 18 17 16 16 15 14 14 13 12 12 11 11 11 11 10 10 10 10 10 10 10 10 10 10
25 26 26 25 25 25 25 24 24 25 24 24 23 23 24 23 22 21 19 18 17 16 16 15 14 13 13 12 11 11 11 10 10 10 9 9 9 9 9 9 9 9 9 9
26 26 26 25 25 25 25 24 24 24 23 23 23 23 23 22 21 19 18 17 16 16 15 14 13 13 12 11 11 10 10 9 9 9 8 8 8 8 8 8 8 8 8 8
26 25 25 25 25 25 24 24 23 23 23 23 23 23 23 21 20 19 18 16 16 15 14 13 13 12 11 10 10 9 9 8 8 8 8 8 7 7 7 7 7 7 7 7
26 25 25 25 25 24 24 24 23 23 23 23 22 22 22 21 19 18 16 15 15 14 13 12 12 11 10 10 9 9 8 8 8 7 7 7 7 7 7 7 7 7 7 7
25 24 25 25 24 23 24 24 24 23 23 23 23 22 21 20 18 17 16 15 14 13 12 11 11 10 10 10 9 8 8 8 7 7 7 7 7 6 6 6 6 6 6 6
24 24 25 25 25 25 24 23 23 22 22 23 22 21 20 19 18 19 16 14 13 12 11 11 10 10 9 9 8 8 7 7 7 7 6 6 6 6 6 6 6 6 6 6
23 24 25 24 23 23 24 23 22 22 22 22 21 20 19 18 18 18 15 13 12 11 11 10 9 9 9 8 7 7 7 7 6 6 6 6 6 6 6 6 5 5 5 5
24 24 24 24 24 25 24 23 22 22 22 21 20 19 18 17 16 15 14 13 12 11 10 10 9 9 8 7 7 6 6 6 6 6 6 6 6 6 6 5 5 5 5 5
25 25 24 24 23 24 23 23 22 22 20 19 18 18 17 16 15 14 13 12 11 11 10 10 9 8 7 7 6 6 6 6 6 6 6 6 6 6 6 5 5 5 5 5
25 25 25 24 24 23 22 22 21 20 19 18 18 17 16 15 15 14 13 12 11 10 10 9 8 8 7 7 6 6 6 6 5 5 5 6 6 6 6 5 5 5 5 5
25 22 23 23 24 23 22 21 20 19 18 17 17 16 15 15 14 13 12 11 10 10 9 9 8 7 7 7 6 6 6 6 6 5 6 6 6 6 6 6 6 5 5 5
25 23 23 23 23 23 22 21 20 19 18 17 16 15 14 14 13 12 12 11 10 9 9 8 8 7 7 7 6 6 6 6 6 6 6 6 6 6 6 6 6 6 5 5
25 24 23 24 24 23 23 21 19 18 17 16 16 15 14 13 13 12 11 10 10 9 9 8 8 7 7 6 6 6 6 6 6 6 6 6 6 6 6 6 6 6 5 5
Wind_Speed
4 6 2 2 3 3 2 2 2 5 4 4 7 8 8 7 7 7 7 6 6 6 6 5 4 3 3 3 2 1 1 1 2 3 5 5 5 5 5 5 5 6 6 5
6 3 3 3 2 4 4 4 3 6 5 3 6 8 7 7 7 6 6 6 6 6 5 4 4 3 3 3 2 0 1 2 3 3 4 4 5 5 5 4 4 5 5 5
3 4 3 4 3 4 5 4 1 3 5 6 7 7 7 7 6 6 5 5 5 5 4 4 4 3 3 2 1 1 2 3 4 5 5 4 4 5 4 4 4 4 4 4
2 2 4 6 4 6 4 1 2 5 7 4 7 3 8 7 6 5 4 3 3 3 3 2 2 1 1 1 1 2 3 4 5 6 6 6 6 6 5 4 4 4 4 4
3 4 5 4 3 5 3 2 4 7 8 5 6 5 7 6 4 4 3 2 1 1 1 0 1 1 2 3 3 4 4 5 5 6 7 8 8 7 6 5 4 5 4 4
3 1 3 4 3 2 1 3 5 8 8 6 1 5 5 4 2 3 2 1 1 2 2 3 3 4 5 5 6 6 7 7 7 8 9 9 10 10 9 8 7 6 5 4
2 4 3 4 4 2 4 7 7 6 5 1 2 2 6 5 3 2 0 1 2 3 4 5 6 7 8 9 9 9 10 10 10 11 11 11 11 11 11 11 9 8 7 6
3 2 6 7 6 5 3 6 6 6 6 3 2 1 6 4 3 2 2 3 4 5 6 7 8 9 10 11 11 11 11 11 12 12 12 12 13 12 12 11 12 11 9 9
6 3 4 5 6 5 3 3 5 6 6 5 1 5 6 4 2 2 4 5 6 7 8 9 10 11 12 12 11 11 12 13 13 14 13 13 14 14 14 14 13 14 11 11
5 3 3 1 1 7 5 3 4 5 6 6 2 2 2 2 5 5 6 7 8 9 10 12 12 12 12 12 12 13 14 15 15 15 15 14 14 15 14 15 16 15 14 14
5 3 2 2 5 7 4 3 4 3 5 6 7 3 5 5 6 7 8 8 10 11 13 13 13 13 13 14 15 15 15 16 16 16 15 16 16 17 17 16 17 16 15 15
4 4 2 4 4 4 6 5 5 5 4 4 8 3 6 5 6 7 9 10 11 13 14 15 15 14 15 16 16 17 17 17 17 17 17 17 17 17 18 18 18 17 16 16
2 3 2 6 5 3 3 5 4 4 4 5 8 6 3 5 8 9 10 13 14 15 16 16 15 15 16 17 17 18 18 19 18 18 18 18 19 19 19 19 18 18 17 17
2 3 6 6 5 3 0 2 3 5 6 8 8 12 13 12 11 11 13 15 16 16 16 16 16 16 17 18 18 18 19 19 19 19 19 19 19 19 19 19 19 18 18 18
3 1 2 2 2 2 2 1 2 4 6 9 12 14 14 12 12 13 14 16 17 17 17 17 17 18 18 19 18 18 19 19 19 19 19 19 19 19 19 19 19 18 18 19
1 2 3 3 2 4 5 4 4 4 7 10 13 13 10 10 12 14 16 17 17 17 18 18 19 19 19 19 19 19 19 18 18 19 19 19 19 19 19 18 18 18 17 17
3 3 5 5 2 7 7 6 5 5 9 11 13 14 15 15 15 16 16 16 16 17 19 20 20 19 19 19 18 18 18 18 18 19 19 19 19 19 19 19 18 18 17 17
4 5 5 6 5 6 3 3 2 7 11 10 11 13 14 14 15 15 12 12 15 18 19 19 19 19 19 19 19 18 18 18 18 19 18 18 19 19 18 18 18 17 15 15
5 5 6 6 9 8 3 4 2 8 12 7 9 13 14 14 15 10 8 12 16 17 18 18 19 19 19 19 18 18 18 18 18 18 18 18 18 19 18 18 17 16 14 14
5 6 8 7 9 8 2 5 0 6 6 4 9 12 14 15 14 12 15 16 17 17 17 17 18 18 18 17 18 18 18 18 18 18 18 18 18 18 18 18 16 14 13 13
6 6 9 9 10 5 6 5 3 7 9 8 10 10 12 12 12 15 17 16 16 17 18 17 17 17 16 17 17 17 17 17 17 18 18 18 18 17 17 15 13 13 12 12
6 6 5 6 7 2 8 3 3 7 6 7 8 9 10 12 14 15 16 16 17 17 18 17 16 16 16 16 16 17 16 17 17 17 17 18 17 16 13 13 13 12 11 10
5 5 5 5 4 3 5 3 2 4 6 6 7 9 10 13 14 15 15 16 16 17 17 16 16 17 16 15 15 16 16 16 16 16 17 16 16 14 13 12 11 10 8 7
4 2 5 7 7 5 6 6 5 5 6 6 6 8 10 12 14 15 15 15 16 16 16 16 16 17 17 16 15 14 15 15 15 16 16 15 14 13 12 10 8 7 6 6
8 4 7 10 9 6 7 6 5 5 5 5 6 7 9 11 13 14 14 15 15 15 15 15 15 16 17 16 16 15 14 14 14 15 14 13 12 11 10 9 6 7 6 5
7 8 9 8 4 5 3 3 3 4 5 5 6 8 9 10 12 14 14 14 14 15 16 16 16 16 17 16 16 15 14 14 13 12 12 11 10 9 9 8 6 2 3 4
Wind_Direction
223 242 252 360 315 315 276 237 134 106 107 93 104 102 85 78 76 76 74 76 76 72 71 70 70 77 93 95 93 76 338 301 283 286 291 292 294 295 294 293 293 293 290 287
221 201 10 333 284 244 230 220 161 129 131 139 127 112 98 83 78 77 82 85 86 88 85 79 82 88 93 98 99 148 282 295 290 289 285 285 293 293 297 304 302 300 303 298
299 27 353 284 238 239 238 263 236 157 155 165 166 151 133 114 107 102 95 93 93 91 87 84 83 83 87 86 57 360 328 310 301 297 288 286 274 277 289 299 300 303 304 302
298 352 309 283 268 284 260 314 250 193 208 205 226 222 144 141 131 117 106 101 103 102 95 89 88 68 40 8 339 322 304 301 299 294 300 304 306 309 310 306 314 313 310 311
348 349 320 300 334 311 340 344 246 230 249 255 224 266 133 150 141 130 120 113 121 137 146 190 263 310 313 307 304 301 299 297 294 293 294 292 297 303 302 303 304 305 311 306
10 26 345 339 325 317 232 225 218 231 245 245 245 286 121 115 97 122 137 169 226 247 257 263 270 280 290 294 293 294 295 293 292 291 293 290 294 294 295 291 291 286 289 292
90 93 52 341 296 195 263 271 260 246 239 223 116 274 84 77 66 54 356 280 278 275 276 279 286 293 296 296 297 299 299 297 295 290 287 285 283 282 277 279 280 277 281 278
343 50 37 18 357 328 330 303 307 307 312 325 165 112 97 83 72 31 339 313 296 291 288 290 295 297 298 300 303 305 306 305 302 296 291 285 281 278 278 275 280 279 278 278
353 22 70 43 30 342 322 346 336 294 287 290 139 124 124 117 72 339 316 306 304 306 306 304 305 306 307 308 309 310 309 305 302 300 297 287 282 280 282 281 271 270 267 267
345 331 54 63 197 54 24 354 311 314 323 313 299 177 123 52 357 342 328 321 319 317 315 317 316 314 315 312 310 309 306 303 302 299 296 293 291 285 279 275 277 276 274 268
345 320 84 103 37 22 22 26 356 335 338 319 320 30 75 17 342 327 325 323 321 320 320 320 317 315 313 311 310 310 309 306 302 300 298 295 291 289 285 278 273 270 266 265
358 330 53 92 89 47 45 25 359 336 343 319 309 16 96 5 326 318 317 319 319 318 316 316 316 315 312 312 313 311 309 306 303 301 298 294 292 289 285 281 278 274 268 261
19 324 226 164 164 119 57 45 18 346 316 319 316 345 83 317 311 312 313 317 317 317 318 317 316 315 313 313 312 310 308 306 305 303 300 297 294 290 286 284 280 275 270 263
320 23 3 17 15 360 53 59 6 334 332 326 328 324 328 331 324 320 319 318 318 319 318 317 317 314 314 312 311 309 307 307 305 303 300 297 294 292 289 286 283 277 271 265
278 10 20 18 354 297 276 277 326 344 340 324 325 320 329 339 331 324 319 319 318 318 319 319 317 316 315 313 311 309 308 308 307 303 299 297 296 294 291 288 285 281 275 268
279 300 282 257 245 271 259 248 264 306 322 320 316 323 350 330 317 317 320 321 319 320 321 320 318 317 315 314 311 310 309 308 305 301 300 299 298 295 291 288 285 281 276 272
231 252 285 301 279 277 262 229 248 301 326 321 316 326 331 322 322 323 320 318 320 321 321 319 318 316 315 313 313 310 309 307 304 301 299 299 297 295 293 291 288 284 279 274
241 254 275 296 284 283 52 107 267 301 313 317 312 320 327 322 320 312 310 320 321 320 319 319 317 316 315 316 315 312 310 307 305 303 303 303 302 299 297 293 289 285 281 275
224 239 275 287 291 293 157 178 276 309 310 321 322 323 323 325 315 315 3 334 321 319 318 317 317 316 317 316 316 314 310 309 308 307 308 308 306 303 299 294 290 288 283 275
188 228 262 276 295 301 89 125 96 291 300 23 326 321 324 323 318 332 342 329 324 322 320 319 317 316 317 319 318 313 310 310 309 310 309 307 303 300 297 294 291 287 281 275
226 234 256 275 282 288 116 135 224 301 345 346 327 322 320 322 313 315 321 323 322 320 320 319 318 318 319 318 315 310 310 309 311 310 307 305 303 300 297 295 291 286 280 274
274 271 260 273 278 289 133 174 289 326 328 320 320 319 318 314 312 316 319 321 321 321 322 322 321 320 319 317 314 311 311 311 311 310 307 306 306 305 303 300 295 288 282 276
255 295 298 278 301 95 176 238 296 306 302 312 314 317 318 314 317 320 321 322 322 322 322 323 323 320 318 319 318 313 312 313 312 309 307 307 307 308 307 303 300 296 285 275
228 203 259 265 266 233 224 240 254 262 280 299 305 311 314 315 319 321 322 323 323 323 323 326 324 320 319 320 319 315 313 313 312 310 309 310 310 310 311 308 306 304 297 288
293 237 255 260 267 255 232 235 250 249 257 276 293 306 313 316 317 321 321 322 323 322 324 325 322 319 318 320 319 318 318 316 313 311 310 312 314 314 314 316 319 318 321 324
256 243 252 276 262 240 229 176 210 230 247 269 291 303 312 316 317 320 321 323 322 322 323 323 324 321 320 321 320 321 322 321 315 313 315 316 317 319 322 326 332 6 340 359
Height
1495 1492 1488 1486 1484 1484 1484 1485 1488 1491 1494 1494 1499 1504 1508 1510 1511 1512 1513 1514 1514 1514 1514 1513 1512 1512 1512 1512 1512 1512 1512 1512 1512 1512 1511 1510 1508 1506 1504 1502 1499 1498 1496 1495
1492 1490 1487 1487 1486 1486 1485 1486 1488 1493 1495 1496 1502 1506 1509 1511 1513 1514 1515 1515 1515 1516 1516 1515 1514 1514 1513 1512 1512 1512 1512 1511 1511 1510 1509 1507 1505 1504 1502 1500 1497 1495 1493 1492
1490 1488 1488 1486 1485 1486 1485 1484 1485 1490 1495 1496 1499 1506 1508 1511 1514 1515 1516 1516 1516 1517 1516 1516 1516 1515 1514 1513 1512 1512 1511 1510 1510 1509 1508 1506 1503 1501 1500 1498 1495 1493 1491 1490
1487 1487 1488 1486 1484 1484 1487 1482 1484 1489 1494 1492 1495 1501 1506 1507 1510 1513 1515 1516 1517 1517 1517 1517 1516 1515 1515 1513 1512 1511 1510 1509 1508 1507 1506 1505 1503 1501 1499 1496 1494 1491 1490 1488
1489 1489 1489 1488 1486 1486 1485 1485 1484 1485 1487 1489 1490 1494 1503 1504 1508 1511 1514 1516 1516 1517 1517 1517 1516 1515 1514 1513 1512 1510 1509 1507 1506 1504 1503 1501 1500 1499 1497 1494 1492 1489 1488 1486
1489 1490 1489 1488 1486 1486 1486 1486 1485 1483 1482 1497 1492 1496 1505 1504 1508 1509 1513 1515 1516 1516 1516 1516 1515 1514 1513 1512 1511 1509 1507 1506 1504 1502 1500 1499 1497 1495 1494 1492 1490 1488 1486 1484
1491 1489 1489 1488 1484 1484 1484 1488 1495 1498 1498 1499 1493 1497 1510 1507 1509 1511 1512 1514 1515 1515 1515 1514 1514 1512 1511 1510 1508 1507 1504 1502 1500 1499 1497 1495 1493 1491 1490 1488 1487 1485 1483 1482
1497 1497 1491 1490 1490 1489 1487 1488 1499 1509 1504 1495 1494 1502 1510 1510 1512 1513 1513 1513 1514 1513 1513 1512 1511 1510 1509 1507 1505 1503 1500 1498 1496 1494 1492 1490 1488 1487 1485 1484 1482 1481 1479 1478
1496 1498 1492 1493 1492 1489 1487 1488 1487 1491 1493 1498 1496 1503 1509 1510 1511 1512 1512 1512 1512 1512 1511 1510 1509 1507 1505 1503 1501 1499 1496 1494 1491 1489 1487 1484 1482 1480 1479 1477 1476 1475 1474 1473
1492 1498 1493 1492 1489 1492 1491 1490 1490 1493 1507 1507 1498 1501 1508 1508 1509 1509 1510 1510 1510 1510 1509 1508 1506 1504 1502 1500 1498 1495 1492 1489 1486 1483 1481 1479 1477 1474 1472 1470 1469 1468 1467 1466
1492 1497 1495 1493 1498 1498 1494 1494 1494 1494 1499 1509 1509 1505 1503 1507 1508 1508 1508 1509 1509 1508 1507 1505 1503 1501 1499 1496 1493 1490 1487 1483 1480 1477 1474 1471 1469 1467 1465 1463 1461 1460 1459 1459
1497 1494 1498 1500 1500 1498 1496 1499 1497 1504 1507 1505 1505 1505 1504 1506 1507 1508 1508 1508 1508 1507 1505 1503 1500 1497 1495 1492 1488 1485 1481 1478 1474 1471 1467 1464 1461 1459 1456 1455 1453 1451 1450 1450
1497 1499 1503 1504 1503 1499 1500 1501 1499 1498 1501 1504 1508 1505 1503 1504 1505 1506 1506 1506 1505 1503 1501 1499 1496 1494 1491 1487 1483 1480 1476 1472 1468 1464 1460 1457 1453 1451 1448 1445 1444 1442 1441 1440
1499 1499 1503 1508 1504 1500 1503 1503 1501 1500 1502 1506 1505 1504 1498 1498 1500 1503 1504 1504 1502 1500 1498 1495 1493 1490 1486 1482 1478 1474 1470 1466 1461 1457 1453 1449 1445 1442 1439 1436 1434 1432 1431 1430
1498 1499 1500 1500 1500 1500 1502 1503 1504 1505 1506 1507 1505 1502 1498 1500 1502 1504 1503 1501 1499 1497 1494 1492 1489 1485 1481 1477 1473 1468 1464 1459 1455 1450 1446 1442 1438 1434 1431 1428 1425 1423 1421 1420
1499 1500 1500 1502 1501 1501 1503 1503 1504 1505 1504 1503 1501 1499 1498 1502 1503 1502 1501 1499 1496 1494 1491 1488 1484 1480 1476 1472 1467 1462 1457 1453 1448 1443 1439 1434 1430 1426 1422 1419 1416 1413 1411 1410
1496 1500 1503 1499 1499 1503 1503 1500 1503 1503 1501 1501 1501 1500 1498 1499 1500 1500 1499 1497 1494 1491 1488 1484 1480 1476 1471 1466 1461 1456 1451 1447 1442 1437 1432 1427 1423 1418 1414 1411 1407 1404 1402 1400
1499 1500 1500 1498 1505 1513 1501 1498 1500 1502 1500 1497 1497 1498 1499 1499 1499 1498 1495 1494 1492 1489 1485 1480 1476 1471 1466 1461 1456 1451 1446 1441 1436 1431 1425 1421 1416 1411 1406 1402 1398 1395 1393 1391
1499 1500 1498 1499 1499 1496 1497 1499 1500 1501 1499 1496 1498 1498 1498 1497 1496 1490 1492 1492 1490 1486 1481 1477 1472 1466 1461 1456 1451 1446 1440 1435 1430 1425 1419 1414 1409 1403 1398 1394 1390 1387 1384 1382
1499 1498 1497 1497 1506 1506 1496 1497 1501 1502 1497 1497 1499 1498 1497 1496 1491 1488 1490 1489 1485 1482 1477 1472 1467 1462 1457 1451 1446 1440 1435 1430 1424 1419 1413 1407 1402 1396 1391 1386 1382 1379 1376 1374
1495 1496 1496 1495 1498 1490 1492 1497 1500 1501 1499 1498 1498 1498 1497 1495 1495 1492 1488 1485 1482 1478 1473 1468 1463 1458 1452 1447 1441 1435 1430 1424 1419 1413 1407 1401 1396 1390 1384 1379 1375 1372 1370 1368
1491 1490 1494 1495 1499 1495 1493 1495 1496 1498 1497 1497 1497 1497 1496 1494 1492 1489 1486 1482 1478 1474 1469 1464 1459 1453 1448 1442 1437 1431 1425 1419 1413 1408 1402 1396 1390 1385 1380 1374 1370 1367 1364 1362
1488 1487 1485 1489 1490 1491 1492 1493 1495 1496 1496 1496 1495 1495 1494 1491 1489 1486 1482 1479 1475 1470 1466 1461 1455 1449 1444 1439 1433 1426 1420 1414 1408 1403 1397 1391 1386 1380 1375 1370 1366 1362 1360 1358
1484 1491 1489 1488 1484 1488 1490 1492 1493 1494 1494 1494 1493 1493 1491 1489 1486 1483 1480 1476 1472 1467 1462 1457 1452 1446 1440 1434 1429 1423 1416 1410 1404 1398 1393 1387 1382 1376 1371 1367 1363 1360 1357 1355
1484 1486 1485 1486 1484 1486 1487 1489 1490 1491 1491 1491 1491 1490 1489 1487 1484 1481 1477 1473 1469 1464 1459 1454 1448 1442 1436 1430 1424 1418 1412 1406 1401 1395 1390 1384 1379 1374 1369 1365 1361 1357 1355 1353
1480 1481 1483 1480 1480 1482 1484 1486 1487 1488 1488 1488 1488 1487 1486 1484 1481 1478 1474 1470 1466 1461 1456 1451 1445 1439 1433 1427 1421 1415 1409 1403 1397 1392 1387 1382 1377 1372 1367 1363 1359 1356 1354 1351